Marshalltown, IA

5:27 AM CST on November 22, 2019 (GMT -0600)
Marshalltown Municipal

Weather History for KMIW - September, 2019

Change the Weather History Date:

Thursday, September 5, 2019

  Actual Average Record
Temperature  
Mean Temperature 66 °F 66 °F  
Max Temperature 81 °F 78 °F 91 °F (2013)
Min Temperature 50 °F 55 °F 44 °F (2008)
Degree Days  
Heating Degree Days 0 2  
Month to date heating degree days 6 8  
Since 1 July heating degree days 16 29  
Cooling Degree Days 1 3  
Month to date cooling degree days 9 19  
Year to date cooling degree days 609 675  
Growing Degree Days 15 (Base 50)    
Moisture  
Dew Point 61 °F    
Average Humidity 80    
Maximum Humidity 100    
Minimum Humidity 60    
Precipitation  
Precipitation 0.00 in 0.13 in 0.33 in (2004)
Month to date precipitation 0.03 0.62  
Sea Level Pressure  
Sea Level Pressure 30.04 in    
Wind  
Wind Speed 10 mph (SSE)    
Max Wind Speed 22 mph    
Max Gust Speed 29 mph    
Visibility 10 miles    
Events      
T = Trace of Precipitation, MM = Missing Value Source: NWS Daily Summary

Daily Weather History Graph

Daily Weather History Graph

Search for Another Location

Airport or City:

Astronomy

Sep. 05, 2019 Rise Set
Actual Time 6:41 AM CDT 7:38 PM CDT
Civil Twilight 6:12 AM CDT 8:07 PM CDT
Nautical Twilight 5:38 AM CDT 8:41 PM CDT
Astronomical Twilight 5:03 AM CDT 9:16 PM CDT
Moon 1:55 PM CDT (9/5) 11:47 PM CDT (9/5)
Length of Visible Light 13h 54m
Length of Day
12h 57m
Waxing Crescent, 45% of the Moon is Illuminated
Sep 5
Waxing Crescent
Sep 5
First Quarter
Sep 13
Full
Sep 21
Last Quarter
Sep 28
New

Hourly Weather History & Observations

Time (CDT) Temp. Heat Index Dew Point Humidity Pressure Visibility Wind Dir Wind Speed Gust Speed Precip Events Conditions
12:53 AM 53.1 °F - 52.0 °F 96% 30.14 in 10.0 mi SE 3.5 mph - N/A   Clear
1:53 AM 51.1 °F - 51.1 °F 100% 30.14 in 10.0 mi East 4.6 mph - N/A   Clear
2:53 AM 50.0 °F - 50.0 °F 100% 30.13 in 10.0 mi SE 4.6 mph - N/A   Clear
3:53 AM 53.1 °F - 53.1 °F 100% 30.13 in 10.0 mi SE 6.9 mph - N/A   Clear
4:53 AM 52.0 °F - 52.0 °F 100% 30.12 in 10.0 mi SE 5.8 mph - N/A   Clear
5:53 AM 54.0 °F - 54.0 °F 100% 30.11 in 10.0 mi SSE 6.9 mph - N/A   Scattered Clouds
6:53 AM 55.0 °F - 55.0 °F 100% 30.13 in 10.0 mi SE 5.8 mph - N/A   Overcast
7:53 AM 57.0 °F - 55.9 °F 96% 30.13 in 10.0 mi SSE 10.4 mph - N/A   Mostly Cloudy
8:53 AM 61.0 °F - 59.0 °F 93% 30.13 in 10.0 mi SSE 9.2 mph - N/A   Mostly Cloudy
9:53 AM 64.0 °F - 59.0 °F 84% 30.11 in 10.0 mi SSE 13.8 mph - N/A   Mostly Cloudy
10:53 AM 69.1 °F - 59.0 °F 70% 30.08 in 10.0 mi SSE 17.3 mph - N/A   Clear
11:53 AM 73.0 °F - 62.1 °F 68% 30.07 in 10.0 mi SSE 16.1 mph - N/A   Partly Cloudy
12:53 PM 75.0 °F - 63.0 °F 66% 30.04 in 10.0 mi SSE 17.3 mph - N/A   Clear
1:53 PM 77.0 °F - 63.0 °F 62% 30.00 in 10.0 mi SSE 19.6 mph - N/A   Clear
2:53 PM 78.1 °F - 64.9 °F 64% 29.98 in 10.0 mi SSE 18.4 mph 28.8 mph N/A   Clear
3:53 PM 80.1 °F 82.3 °F 66.9 °F 64% 29.96 in 10.0 mi SSE 13.8 mph - N/A   Clear
4:53 PM 80.1 °F 82.7 °F 68.0 °F 67% 29.96 in 10.0 mi South 15.0 mph - N/A   Clear
5:53 PM 80.1 °F 82.9 °F 69.1 °F 69% 29.94 in 10.0 mi South 15.0 mph - N/A   Clear
6:53 PM 77.0 °F - 70.0 °F 79% 29.93 in 10.0 mi South 6.9 mph - N/A   Clear
7:53 PM 73.9 °F - 70.0 °F 87% 29.93 in 10.0 mi South 5.8 mph - N/A   Clear
8:53 PM 72.0 °F - 69.1 °F 91% 29.93 in 10.0 mi South 4.6 mph - N/A   Clear
9:53 PM 72.0 °F - 70.0 °F 93% 29.93 in 10.0 mi South 4.6 mph - N/A   Clear
10:53 PM 70.0 °F - 70.0 °F 100% 29.93 in 10.0 mi Calm Calm - N/A   Clear
11:53 PM 68.0 °F - 68.0 °F 100% 29.93 in 9.0 mi West 3.5 mph - N/A   Mostly Cloudy